| time (UTC) | temp F | wind direction | speed knots | gust knots | rain 1hr in | rain 24hr in | rain mn in | humidity % | barometer mb |
| 20260504202602 | 74 | 190 | 1.7 | 5.2 | 0.00 | 0.00 | 0.00 | 31 | 1008.5 |
| 20260504202100 | 73 | 205 | 4.3 | 5.2 | 0.00 | 0.00 | 0.00 | 32 | 1008.5 |
| 20260504201556 | 72 | 201 | 3.5 | 5.2 | 0.00 | 0.00 | 0.00 | 32 | 1008.6 |
| 20260504201055 | 75 | 211 | 3.5 | 4.3 | 0.00 | 0.00 | 0.00 | 30 | 1008.6 |
| 20260504200550 | 75 | 205 | 4.3 | 5.2 | 0.00 | 0.00 | 0.00 | 31 | 1008.8 |
| 20260504200048 | 74 | 205 | 3.5 | 5.2 | 0.00 | 0.00 | 0.00 | 31 | 1008.8 |
| 20260504195543 | 75 | 185 | 2.6 | 4.3 | 0.00 | 0.00 | 0.00 | 32 | 1008.8 |
| 20260504195040 | 75 | 210 | 3.5 | 5.2 | 0.00 | 0.00 | 0.00 | 29 | 1008.9 |
| 20260504194537 | 75 | 171 | 1.7 | 7.8 | 0.00 | 0.00 | 0.00 | 29 | 1008.9 |
| 20260504194032 | 75 | 186 | 2.6 | 6.1 | 0.00 | 0.00 | 0.00 | 29 | 1008.7 |
| 20260504193529 | 76 | 205 | 1.7 | 5.2 | 0.00 | 0.00 | 0.00 | 29 | 1009.0 |
| 20260504193028 | 75 | 276 | 0.0 | 5.2 | 0.00 | 0.00 | 0.00 | 29 | 1009.1 |
| 20260504192526 | 75 | 234 | 5.2 | 6.1 | 0.00 | 0.00 | 0.00 | 30 | 1009.1 |
| 20260504192024 | 75 | 204 | 1.7 | 5.2 | 0.00 | 0.00 | 0.00 | 29 | 1009.1 |
| 20260504191521 | 74 | 157 | 3.5 | 4.3 | 0.00 | 0.00 | 0.00 | 32 | 1009.3 |
| 20260504191017 | 74 | 205 | 2.6 | 3.5 | 0.00 | 0.00 | 0.00 | 30 | 1009.2 |
| 20260504190513 | 74 | 169 | 1.7 | 8.7 | 0.00 | 0.00 | 0.00 | 30 | 1009.3 |
| 20260504190009 | 74 | 317 | 0.9 | 7.0 | 0.00 | 0.00 | 0.00 | 28 | 1009.6 |
| 20260504185507 | 73 | 199 | 3.5 | 6.1 | 0.00 | 0.00 | 0.00 | 31 | 1009.2 |
| 20260504185003 | 74 | 257 | 3.5 | 5.2 | 0.00 | 0.00 | 0.00 | 29 | 1009.4 |
| 20260504184458 | 73 | 212 | 5.2 | 7.8 | 0.00 | 0.00 | 0.00 | 31 | 1009.6 |
| 20260504183954 | 73 | 215 | 2.6 | 7.0 | 0.00 | 0.00 | 0.00 | 31 | 1009.3 |
| 20260504183452 | 73 | 248 | 0.9 | 4.3 | 0.00 | 0.00 | 0.00 | 30 | 1009.4 |
| 20260504182949 | 74 | 216 | 8.7 | 8.7 | 0.00 | 0.00 | 0.00 | 29 | 1009.5 |
| 20260504182446 | 73 | 340 | 1.7 | 5.2 | 0.00 | 0.00 | 0.00 | 29 | 1009.6 |
| 20260504181943 | 73 | 257 | 5.2 | 5.2 | 0.00 | 0.00 | 0.00 | 32 | 1009.7 |
| 20260504181440 | 73 | 11 | 1.7 | 5.2 | 0.00 | 0.00 | 0.00 | 30 | 1009.5 |
| 20260504180939 | 74 | 201 | 4.3 | 6.1 | 0.00 | 0.00 | 0.00 | 29 | 1009.5 |
| 20260504180437 | 72 | 197 | 2.6 | 3.5 | 0.00 | 0.00 | 0.00 | 31 | 1009.8 |
| 20260504175936 | 69 | 221 | 1.7 | 4.3 | 0.00 | 0.00 | 0.00 | 33 | 1009.8 |
| 20260504175432 | 72 | 158 | 5.2 | 5.2 | 0.00 | 0.00 | 0.00 | 32 | 1009.9 |
| 20260504174930 | 72 | 201 | 1.7 | 5.2 | 0.00 | 0.00 | 0.00 | 31 | 1010.1 |
| 20260504174427 | 72 | 153 | 4.3 | 6.1 | 0.00 | 0.00 | 0.00 | 30 | 1009.9 |
| 20260504173924 | 72 | 183 | 2.6 | 7.8 | 0.00 | 0.00 | 0.00 | 32 | 1009.9 |
| 20260504173420 | 72 | 165 | 4.3 | 5.2 | 0.00 | 0.00 | 0.00 | 30 | 1010.0 |
| 20260504172918 | 72 | 165 | 5.2 | 9.6 | 0.00 | 0.00 | 0.00 | 31 | 1009.9 |
| 20260504172414 | 72 | 202 | 5.2 | 5.2 | 0.00 | 0.00 | 0.00 | 31 | 1010.0 |
| 20260504171911 | 72 | 208 | 2.6 | 8.7 | 0.00 | 0.00 | 0.00 | 30 | 1010.2 |
| 20260504171408 | 72 | 203 | 4.3 | 6.1 | 0.00 | 0.00 | 0.00 | 30 | 1010.1 |
| 20260504170905 | 71 | 198 | 3.5 | 8.7 | 0.00 | 0.00 | 0.00 | 31 | 1010.0 |
| 20260504170401 | 70 | 186 | 2.6 | 7.0 | 0.00 | 0.00 | 0.00 | 32 | 1010.4 |
| 20260504160320 | 68 | 215 | 3.5 | 5.2 | 0.00 | 0.00 | 0.00 | 32 | 1011.1 |
| 20260504150745 | 63 | 194 | 1.7 | 2.6 | 0.00 | 0.00 | 0.00 | 35 | 1012.1 |
| 20260504150242 | 63 | 199 | 2.6 | 7.8 | 0.00 | 0.00 | 0.00 | 34 | 1012.0 |
| 20260504141211 | 61 | 193 | 3.5 | 5.2 | 0.00 | 0.00 | 0.00 | 35 | 1012.1 |
| 20260504140708 | 62 | 189 | 1.7 | 3.5 | 0.00 | 0.00 | 0.00 | 35 | 1012.4 |
| 20260504140203 | 61 | 160 | 1.7 | 5.2 | 0.00 | 0.00 | 0.00 | 35 | 1012.2 |
| 20260504130632 | 58 | 165 | 2.6 | 3.5 | 0.00 | 0.00 | 0.00 | 40 | 1012.7 |
| 20260504130128 | 57 | 183 | 2.6 | 3.5 | 0.00 | 0.00 | 0.00 | 38 | 1012.6 |
| 20260504110520 | 47 | 98 | 1.7 | 4.3 | 0.00 | 0.00 | 0.00 | 56 | 1013.2 |
| 20260504100442 | 43 | 66 | 0.0 | 0.0 | 0.00 | 0.00 | 0.00 | 60 | 1012.9 |
| 20260504081835 | 44 | 89 | 0.0 | 3.5 | 0.00 | 0.00 | 0.00 | 58 | 1013.1 |
| 20260504081331 | 44 | 107 | 1.7 | 2.6 | 0.00 | 0.00 | 0.00 | 58 | 1013.2 |
| 20260504080827 | 44 | 93 | 0.9 | 1.7 | 0.00 | 0.00 | 0.00 | 57 | 1013.4 |
| 20260504080325 | 45 | 162 | 0.9 | 3.5 | 0.00 | 0.00 | 0.00 | 57 | 1013.4 |
| 20260504070252 | 48 | 76 | 0.0 | 1.7 | 0.00 | 0.00 | 0.00 | 49 | 1012.9 |
| 20260504060213 | 49 | 83 | 1.7 | 2.6 | 0.00 | 0.00 | 0.00 | 47 | 1013.1 |
| 20260504050640 | 49 | 119 | 1.7 | 2.6 | 0.00 | 0.00 | 0.00 | 47 | 1013.1 |
| 20260504050137 | 49 | 76 | 0.9 | 3.5 | 0.00 | 0.00 | 0.00 | 46 | 1013.2 |
| 20260504045634 | 49 | 114 | 2.6 | 2.6 | 0.00 | 0.00 | 0.00 | 46 | 1012.9 |
| 20260504045134 | 49 | 127 | 1.7 | 1.7 | 0.00 | 0.00 | 0.00 | 45 | 1013.1 |
| 20260504044632 | 50 | 125 | 1.7 | 1.7 | 0.00 | 0.00 | 0.00 | 45 | 1013.1 |
| 20260504044129 | 49 | 95 | 1.7 | 2.6 | 0.00 | 0.00 | 0.00 | 45 | 1013.1 |
| 20260504043626 | 49 | 145 | 0.9 | 1.7 | 0.00 | 0.00 | 0.00 | 45 | 1013.0 |
| 20260504043123 | 49 | 118 | 1.7 | 1.7 | 0.00 | 0.00 | 0.00 | 46 | 1013.1 |
| 20260504042620 | 49 | 62 | 0.0 | 2.6 | 0.00 | 0.00 | 0.00 | 45 | 1012.9 |
| 20260504042117 | 50 | 118 | 0.9 | 1.7 | 0.00 | 0.00 | 0.00 | 46 | 1012.8 |
| 20260504041613 | 49 | 101 | 0.9 | 1.7 | 0.00 | 0.00 | 0.00 | 45 | 1012.8 |
| 20260504041109 | 49 | 93 | 0.9 | 1.7 | 0.00 | 0.00 | 0.00 | 45 | 1012.8 |
| 20260504040607 | 49 | 77 | 0.9 | 1.7 | 0.00 | 0.00 | 0.00 | 45 | 1013.0 |
| 20260504040103 | 49 | 44 | 0.0 | 0.9 | 0.00 | 0.00 | 0.00 | 45 | 1013.0 |
| 20260504035600 | 49 | 103 | 0.9 | 1.7 | 0.00 | 0.00 | 0.00 | 44 | 1012.7 |
| 20260504035056 | 49 | 112 | 0.9 | 3.5 | 0.00 | 0.00 | 0.00 | 45 | 1012.9 |
| 20260504034554 | 49 | 61 | 0.9 | 2.6 | 0.00 | 0.00 | 0.00 | 44 | 1012.9 |
| 20260504034051 | 49 | 5 | 0.9 | 1.7 | 0.00 | 0.00 | 0.00 | 46 | 1012.8 |
| 20260504033549 | 49 | 109 | 0.9 | 1.7 | 0.00 | 0.00 | 0.00 | 44 | 1012.9 |
| 20260504033046 | 49 | 126 | 0.9 | 1.7 | 0.00 | 0.00 | 0.00 | 44 | 1012.8 |
| 20260504032543 | 49 | 113 | 0.0 | 0.9 | 0.00 | 0.00 | 0.00 | 44 | 1012.7 |
| 20260504032040 | 49 | 97 | 0.9 | 1.7 | 0.00 | 0.00 | 0.00 | 44 | 1012.8 |
| 20260504031537 | 49 | 89 | 1.7 | 1.7 | 0.00 | 0.00 | 0.00 | 44 | 1013.0 |
| 20260504031033 | 49 | 133 | 0.9 | 1.7 | 0.00 | 0.00 | 0.00 | 44 | 1012.8 |
| 20260504030530 | 49 | 66 | 0.0 | 1.7 | 0.00 | 0.00 | 0.00 | 44 | 1012.8 |
| 20260504030026 | 49 | 114 | 2.6 | 3.5 | 0.00 | 0.00 | 0.00 | 44 | 1012.8 |
| 20260504025524 | 49 | 107 | 1.7 | 1.7 | 0.00 | 0.00 | 0.00 | 44 | 1012.9 |
| 20260504025020 | 50 | 99 | 1.7 | 1.7 | 0.00 | 0.00 | 0.00 | 44 | 1012.8 |
| 20260504024517 | 50 | 108 | 1.7 | 2.6 | 0.00 | 0.00 | 0.00 | 43 | 1012.9 |
| 20260504024014 | 50 | 98 | 2.6 | 3.5 | 0.00 | 0.00 | 0.00 | 43 | 1013.0 |
| 20260504023511 | 50 | 46 | 1.7 | 1.7 | 0.00 | 0.00 | 0.00 | 43 | 1012.9 |
| 20260504023007 | 50 | 115 | 0.9 | 1.7 | 0.00 | 0.00 | 0.00 | 43 | 1012.7 |
| 20260504022503 | 50 | 88 | 1.7 | 1.7 | 0.00 | 0.00 | 0.00 | 44 | 1012.9 |
| 20260504021959 | 50 | 89 | 1.7 | 1.7 | 0.00 | 0.00 | 0.00 | 43 | 1012.8 |
| 20260504021457 | 50 | 99 | 1.7 | 2.6 | 0.00 | 0.00 | 0.00 | 43 | 1013.0 |
| 20260504020954 | 50 | 110 | 0.0 | 0.9 | 0.00 | 0.00 | 0.00 | 43 | 1013.0 |
| 20260504020450 | 50 | 67 | 0.9 | 1.7 | 0.00 | 0.00 | 0.00 | 43 | 1012.9 |
| 20260504015947 | 50 | 111 | 0.9 | 1.7 | 0.00 | 0.00 | 0.00 | 43 | 1012.9 |
| 20260504015443 | 50 | 118 | 1.7 | 1.7 | 0.00 | 0.00 | 0.00 | 43 | 1012.9 |
| 20260504014939 | 50 | 93 | 1.7 | 1.7 | 0.00 | 0.00 | 0.00 | 43 | 1012.8 |
| 20260504014435 | 50 | 102 | 0.0 | 1.7 | 0.00 | 0.00 | 0.00 | 43 | 1012.9 |
| 20260504013932 | 50 | 93 | 0.0 | 0.9 | 0.00 | 0.00 | 0.00 | 43 | 1013.0 |
| 20260504013431 | 50 | 97 | 0.0 | 1.7 | 0.00 | 0.00 | 0.00 | 43 | 1012.7 |
| 20260504012927 | 50 | 136 | 2.6 | 2.6 | 0.00 | 0.00 | 0.00 | 42 | 1012.6 |
| 20260504012425 | 51 | 135 | 1.7 | 1.7 | 0.00 | 0.00 | 0.00 | 41 | 1012.4 |
| 20260504011922 | 50 | 105 | 0.0 | 0.9 | 0.00 | 0.00 | 0.00 | 41 | 1012.6 |
| 20260504011419 | 51 | 114 | 0.0 | 1.7 | 0.00 | 0.00 | 0.00 | 41 | 1012.7 |
| 20260504010914 | 51 | 110 | 0.9 | 0.9 | 0.00 | 0.00 | 0.00 | 40 | 1012.5 |
| 20260504010411 | 51 | 52 | 0.9 | 0.9 | 0.00 | 0.00 | 0.00 | 40 | 1012.5 |
| 20260504005907 | 51 | 139 | 0.9 | 1.7 | 0.00 | 0.00 | 0.00 | 40 | 1012.4 |
| 20260504005404 | 51 | 61 | 0.9 | 0.9 | 0.00 | 0.00 | 0.00 | 40 | 1012.4 |
| 20260504004901 | 51 | 94 | 0.0 | 0.9 | 0.00 | 0.00 | 0.00 | 40 | 1012.4 |
| 20260504004359 | 52 | 121 | 0.9 | 1.7 | 0.00 | 0.00 | 0.00 | 40 | 1012.3 |
| 20260504003855 | 52 | 44 | 0.0 | 1.7 | 0.00 | 0.00 | 0.00 | 39 | 1012.2 |
| 20260504003352 | 52 | 144 | 0.0 | 1.7 | 0.00 | 0.00 | 0.00 | 39 | 1012.2 |
| 20260504002849 | 52 | 103 | 0.0 | 0.0 | 0.00 | 0.00 | 0.00 | 38 | 1012.2 |
| 20260504002346 | 53 | 77 | 0.0 | 0.9 | 0.00 | 0.00 | 0.00 | 38 | 1012.2 |
| 20260504001843 | 53 | 66 | 0.0 | 0.9 | 0.00 | 0.00 | 0.00 | 39 | 1012.0 |
| 20260504001340 | 53 | 87 | 0.0 | 0.9 | 0.00 | 0.00 | 0.00 | 39 | 1012.0 |
| 20260504000837 | 53 | 55 | 0.0 | 0.9 | 0.00 | 0.00 | 0.00 | 39 | 1011.7 |
| 20260504000334 | 53 | 141 | 0.0 | 0.9 | 0.00 | 0.00 | 0.00 | 38 | 1012.0 |
| 20260503235832 | 54 | 143 | 0.9 | 1.7 | 0.00 | 0.00 | 0.00 | 37 | 1011.8 |
| 20260503235329 | 54 | 89 | 0.0 | 0.9 | 0.00 | 0.00 | 0.00 | 38 | 1011.8 |
| 20260503234826 | 54 | 140 | 0.9 | 0.9 | 0.00 | 0.00 | 0.00 | 39 | 1012.0 |
| 20260503234324 | 54 | 157 | 0.0 | 0.9 | 0.00 | 0.00 | 0.00 | 38 | 1011.7 |
| 20260503233822 | 55 | 113 | 0.0 | 0.9 | 0.00 | 0.00 | 0.00 | 37 | 1011.6 |
| 20260503233317 | 55 | 203 | 1.7 | 1.7 | 0.00 | 0.00 | 0.00 | 36 | 1012.0 |
| 20260503232814 | 55 | 129 | 0.9 | 1.7 | 0.00 | 0.00 | 0.00 | 36 | 1011.8 |
| 20260503232312 | 55 | 89 | 0.0 | 0.9 | 0.00 | 0.00 | 0.00 | 38 | 1011.7 |
| 20260503231810 | 56 | 99 | 0.0 | 1.7 | 0.00 | 0.00 | 0.00 | 37 | 1011.7 |
| 20260503231306 | 56 | 269 | 0.0 | 1.7 | 0.00 | 0.00 | 0.00 | 38 | 1011.8 |
| 20260503230802 | 56 | 38 | 0.0 | 2.6 | 0.00 | 0.00 | 0.00 | 36 | 1011.8 |
| 20260503230259 | 56 | 262 | 1.7 | 1.7 | 0.00 | 0.00 | 0.00 | 38 | 1011.5 |
| 20260503225757 | 56 | 130 | 0.0 | 0.9 | 0.00 | 0.00 | 0.00 | 37 | 1011.7 |
| 20260503225252 | 56 | 114 | 0.0 | 1.7 | 0.00 | 0.00 | 0.00 | 36 | 1011.8 |
| 20260503224749 | 57 | 129 | 0.0 | 0.9 | 0.00 | 0.00 | 0.00 | 35 | 1011.7 |
| 20260503224247 | 57 | 3 | 1.7 | 4.3 | 0.00 | 0.00 | 0.00 | 34 | 1011.5 |
| 20260503223744 | 57 | 282 | 1.7 | 3.5 | 0.00 | 0.00 | 0.00 | 35 | 1011.8 |
| 20260503223242 | 57 | 34 | 0.9 | 1.7 | 0.00 | 0.00 | 0.00 | 35 | 1011.8 |
| 20260503222737 | 57 | 184 | 0.0 | 2.6 | 0.00 | 0.00 | 0.00 | 35 | 1011.7 |
| 20260503222236 | 56 | 352 | 1.7 | 3.5 | 0.00 | 0.00 | 0.00 | 34 | 1011.6 |
| 20260503221734 | 56 | 190 | 1.7 | 3.5 | 0.00 | 0.00 | 0.00 | 36 | 1011.5 |
| 20260503221231 | 56 | 334 | 1.7 | 6.1 | 0.00 | 0.00 | 0.00 | 35 | 1011.7 |
| 20260503220727 | 57 | 346 | 3.5 | 4.3 | 0.00 | 0.00 | 0.00 | 34 | 1011.8 |
| 20260503220225 | 57 | 291 | 0.0 | 3.5 | 0.00 | 0.00 | 0.00 | 34 | 1011.6 |
| 20260503215721 | 57 | 352 | 2.6 | 3.5 | 0.00 | 0.00 | 0.00 | 33 | 1011.8 |
| 20260503215219 | 57 | 25 | 0.0 | 5.2 | 0.00 | 0.00 | 0.00 | 34 | 1011.7 |
| 20260503214717 | 57 | 88 | 0.0 | 1.7 | 0.00 | 0.00 | 0.00 | 34 | 1011.8 |
| 20260503214213 | 57 | 188 | 1.7 | 3.5 | 0.00 | 0.00 | 0.00 | 35 | 1011.5 |
| 20260503213711 | 57 | 329 | 1.7 | 5.2 | 0.00 | 0.00 | 0.00 | 34 | 1011.6 |
| 20260503213208 | 57 | 51 | 2.6 | 5.2 | 0.00 | 0.00 | 0.00 | 33 | 1011.7 |
| 20260503212705 | 58 | 296 | 5.2 | 5.2 | 0.00 | 0.00 | 0.00 | 33 | 1011.4 |
| 20260503212202 | 57 | 345 | 3.5 | 8.7 | 0.00 | 0.00 | 0.00 | 33 | 1011.5 |
| 20260503211700 | 57 | 157 | 2.6 | 5.2 | 0.00 | 0.00 | 0.00 | 34 | 1011.8 |
| 20260503211155 | 57 | 150 | 1.7 | 3.5 | 0.00 | 0.00 | 0.00 | 34 | 1011.6 |
| 20260503210652 | 57 | 212 | 3.5 | 7.0 | 0.00 | 0.00 | 0.00 | 33 | 1011.7 |
| 20260503210149 | 58 | 350 | 6.1 | 7.0 | 0.00 | 0.00 | 0.00 | 32 | 1011.6 |
| 20260503205644 | 58 | 20 | 2.6 | 5.2 | 0.00 | 0.00 | 0.00 | 33 | 1011.4 |
| 20260503205141 | 57 | 150 | 0.9 | 3.5 | 0.00 | 0.00 | 0.00 | 33 | 1011.6 |
| 20260503204637 | 58 | 14 | 5.2 | 6.1 | 0.00 | 0.00 | 0.00 | 31 | 1011.6 |
| 20260503204135 | 59 | 24 | 0.9 | 5.2 | 0.00 | 0.00 | 0.00 | 31 | 1011.6 |
| 20260503203632 | 59 | 335 | 3.5 | 5.2 | 0.00 | 0.00 | 0.00 | 30 | 1011.6 |
| 20260503203129 | 59 | 197 | 0.9 | 3.5 | 0.00 | 0.00 | 0.00 | 32 | 1011.4 |